Weather History for Evanston, WY

Change the Weather History Date:

Tuesday, February 26, 2013

  Actual Average Record
Temperature  
Mean Temperature 16 °F 25 °F  
Max Temperature 23 °F 34 °F 45 °F (2014)
Min Temperature 8 °F 17 °F -2 °F (2002)
Degree Days  
Heating Degree Days 50 40  
Month to date heating degree days 1096 1098  
Since 1 July heating degree days 5451 5927  
Cooling Degree Days 0 0  
Month to date cooling degree days 0 0  
Year to date cooling degree days 0 0  
Moisture  
Dew Point 9 °F    
Average Humidity 76    
Maximum Humidity 92    
Minimum Humidity 59    
Precipitation  
Precipitation T in 0.03 in 0.12 in (2003)
Month to date precipitation 0.36 0.57  
Year to date precipitation 0.47 1.11  
Sea Level Pressure  
Sea Level Pressure 30.15 in    
Wind  
Wind Speed 11 mph (WNW)    
Max Wind Speed 18 mph    
Max Gust Speed -    
Visibility 10 miles    
Events Snow    
T = Trace of Precipitation, MM = Missing Value Source: NWS Daily Summary

Daily Weather History Graph

Daily Weather History Graph

Search for Another Location

Airport:

Trip Planner

Search our weather history database for the weather conditions in past years. The results will help you decide how hot, cold, wet, or windy it might be!

Date:

Astronomy

Feb. 26, 2013 Rise Set
Actual Time 7:02 AM MST 6:11 PM MST
Civil Twilight 6:34 AM MST 6:39 PM MST
Nautical Twilight 6:02 AM MST 7:11 PM MST
Astronomical Twilight 5:30 AM MST 7:43 PM MST
Moon 7:33 PM MST (2/26) 7:06 AM MST (2/26)
Length of Visible Light 12h 04m
Length of Day
11h 09m
Full, 99% of the Moon is Illuminated
Feb 26
Full
Mar 4
Last Quarter
Mar 11
New
Mar 19
First Quarter
Mar 27
Full

Hourly Weather History & Observations

Time (MST) Temp. Windchill Dew Point Humidity Pressure Visibility Wind Dir Wind Speed Gust Speed Precip Events Conditions
12:53 AM 16.0 °F 2.9 °F 12.0 °F 84% 30.03 in 10.0 mi WSW 11.5 mph - 0.00 in   Overcast
1:53 AM 14.0 °F 2.9 °F 10.0 °F 84% 30.04 in 10.0 mi WSW 8.1 mph - 0.00 in   Mostly Cloudy
2:53 AM 10.0 °F -5.2 °F 7.0 °F 87% 30.04 in 10.0 mi WSW 12.7 mph - N/A   Clear
3:53 AM 10.0 °F -1.9 °F 6.1 °F 84% 30.04 in 10.0 mi WSW 8.1 mph - N/A   Clear
4:53 AM 10.9 °F -0.8 °F 8.1 °F 88% 30.05 in 10.0 mi SW 8.1 mph - N/A   Overcast
5:53 AM 12.9 °F 3.8 °F 9.0 °F 84% 30.06 in 9.0 mi SW 5.8 mph - N/A   Overcast
6:53 AM 12.9 °F 0.7 °F 9.0 °F 84% 30.08 in 10.0 mi WSW 9.2 mph - N/A   Overcast
7:33 AM 10.4 °F -0.4 °F 8.6 °F 92% 29.96 in 10.0 mi WSW 6.9 mph - 0.00 in   Overcast
7:53 AM 12.9 °F 2.6 °F 10.0 °F 88% 30.13 in 6.0 mi West 6.9 mph - 0.00 in   Overcast
8:15 AM 14.0 °F 3.9 °F 10.4 °F 86% 29.98 in 5.0 mi West 6.9 mph - 0.00 in Snow Light Snow
8:32 AM 15.8 °F 7.2 °F 10.4 °F 79% 29.99 in 10.0 mi WNW 5.8 mph - 0.00 in   Overcast
8:53 AM 18.0 °F 5.4 °F 10.0 °F 71% 30.14 in 10.0 mi NW 11.5 mph - 0.00 in   Overcast
9:19 AM 17.6 °F 5.0 °F 10.4 °F 73% 30.00 in 10.0 mi NNW 11.5 mph - N/A   Overcast
9:53 AM 18.0 °F 4.8 °F 9.0 °F 68% 30.17 in 10.0 mi NNW 12.7 mph - N/A   Mostly Cloudy
10:53 AM 19.9 °F 6.2 °F 10.0 °F 65% 30.16 in 10.0 mi NNW 15.0 mph - N/A   Clear
11:53 AM 21.9 °F 10.4 °F 10.0 °F 60% 30.17 in 10.0 mi NNW 11.5 mph - N/A   Clear
12:38 PM 21.2 °F 12.6 °F 12.2 °F 68% 30.05 in 10.0 mi NW 6.9 mph - N/A   Mostly Cloudy
12:53 PM 21.9 °F 9.8 °F 12.9 °F 68% 30.18 in 9.0 mi NNW 12.7 mph - N/A   Overcast
1:15 PM 23.0 °F 12.4 °F 12.2 °F 63% 30.05 in 10.0 mi NNW 10.4 mph - N/A   Scattered Clouds
1:53 PM 23.0 °F 12.4 °F 10.0 °F 58% 30.19 in 10.0 mi NNW 10.4 mph - N/A   Partly Cloudy
2:53 PM 21.9 °F 9.2 °F 10.9 °F 63% 30.23 in 10.0 mi NNW 13.8 mph - N/A   Clear
3:45 PM 19.4 °F 4.5 °F 10.4 °F 68% 30.08 in 10.0 mi NNW 17.3 mph - N/A   Overcast
3:53 PM 21.0 °F 5.7 °F 10.0 °F 63% 30.25 in 10.0 mi North 19.6 mph - N/A   Mostly Cloudy
4:01 PM 21.2 °F 6.4 °F 10.4 °F 63% 30.09 in 10.0 mi NNW 18.4 mph - N/A   Scattered Clouds
4:11 PM 19.4 °F 4.5 °F 12.2 °F 74% 30.09 in 10.0 mi NNW 17.3 mph - N/A   Mostly Cloudy
4:53 PM 19.9 °F 7.3 °F 12.9 °F 74% 30.27 in 9.0 mi NNW 12.7 mph - 0.00 in   Overcast
5:53 PM 16.0 °F 7.4 °F 9.0 °F 74% 30.30 in 10.0 mi NNW 5.8 mph - N/A   Scattered Clouds
6:53 PM 15.1 °F 9.4 °F 8.1 °F 74% 30.32 in 10.0 mi NNW 3.5 mph - N/A   Scattered Clouds
7:03 PM 15.8 °F 10.2 °F 8.6 °F 73% 30.14 in 10.0 mi NW 3.5 mph - N/A   Mostly Cloudy
8:42 PM 12.2 °F 4.3 °F 6.8 °F 79% 30.18 in 10.0 mi WSW 4.6 mph - 0.00 in   Overcast
8:53 PM 12.0 °F 4.1 °F 6.1 °F 77% 30.36 in 10.0 mi WSW 4.6 mph - 0.00 in   Overcast
9:25 PM 10.4 °F 0.8 °F 5.0 °F 79% 30.18 in 10.0 mi WSW 5.8 mph - N/A   Mostly Cloudy
9:32 PM 10.4 °F 2.2 °F 5.0 °F 79% 30.19 in 10.0 mi SW 4.6 mph - N/A   Scattered Clouds
9:53 PM 9.0 °F -0.9 °F 3.9 °F 80% 30.38 in 10.0 mi SSW 5.8 mph - N/A   Clear
10:53 PM 8.1 °F -3.2 °F 3.0 °F 80% 30.39 in 10.0 mi WSW 6.9 mph - N/A   Scattered Clouds
11:53 PM 10.9 °F 4.7 °F 5.0 °F 77% 30.37 in 10.0 mi SW 3.5 mph - N/A   Clear